Location: Wiesbaden
(50.0830°N, 8.2500°E)
Time: 17:08:10
(UTC+01:00)

ISS - Pass Details

Date: 22 January 2020
Orbit: 415 x 421 km, 51.6° (Epoch: 18 January)

Event Time Altitude Azimuth Distance (km) Brightness Sun altitude
Rises 19:58:19 0° 243° (WSW) 2,359 1.0 -27.7°
Reaches altitude 10° 20:00:24 10° 241° (WSW) 1,496 -0.3 -28.0°
Enters shadow 20:01:13 16° 239° (WSW) 1,170 -0.9 -28.1°
